Home   Weather   Walvis Bay   Past weeks
Flag for Namibia

Past Weather in Walvis Bay, Namibia — Yesterday and Last 2 Weeks

Now
50 °F

Clear.


Feels Like: 47 °F
Forecast: 70 / 55 °F
Wind: 7 mph from Northeast

Location: Walvis Bay

Current Time: Sep 16, 2019 at 6:29:02 am

Latest Report: Sep 16, 2019 at 6:00 am


Visibility: 10 mi

Pressure: 29.92 "Hg

Humidity: 88%

Dew Point: 46 °F

Location of Walvis BayLocation

Past Weather in Walvis Bay — Graph

°F

Walvis Bay Temperature Yesterday

Maximum temperature yesterday: 75 °F (at 1:00 pm)
Minimum temperature yesterday: 50 °F (at 6:00 am)
Average temperature yesterday: 60 °F

High & Low Weather Summary for the Past Weeks

 TemperatureHumidityPressure
High90 °F (Sep 9, 3:00 pm)100% (Sep 8, 8:00 am)30.18 "Hg (Sep 8, 8:00 am)
Low48 °F (Sep 9, 7:00 am)16% (Sep 9, 5:00 pm)29.89 "Hg (Sep 16, 3:00 am)
Average59 °F77%30.05 "Hg
* Reported Sep 4 8:00 pm — Sep 16 5:00 am, Walvis Bay. Weather by CustomWeather, © 2019

Note: Actual official high and low records may vary slightly from our data, if they occured in-between our weather recording intervals... More about our weather records

Advertising

Walvis Bay Weather History for the Previous 24 Hours

Scroll right to see more
 ConditionsComfort  
Time TempWeatherWind HumidityBarometerVisibility
5:00 am
Mon, Sep 16
52 °FCool.2 mph82%29.89 "HgN/A
4:00 am52 °FCool.2 mph88%29.89 "HgN/A
3:00 am54 °FCool.5 mph77%29.89 "HgN/A
2:00 am54 °FCool.3 mph82%29.92 "HgN/A
1:00 am52 °FCool.5 mph82%29.95 "HgN/A
12:00 am57 °FCool.3 mph77%29.95 "HgN/A
11:00 pm
Sun, Sep 15
57 °FCool.8 mph77%29.95 "HgN/A
10:00 pm59 °FCool.2 mph72%29.95 "HgN/A
9:00 pm59 °FCool.3 mph77%29.95 "HgN/A
8:00 pm64 °FClear.3 mph64%29.92 "Hg10 mi
7:00 pm66 °FClear.3 mph60%29.92 "Hg10 mi
6:00 pm68 °FSunny.5 mph56%29.92 "Hg10 mi
5:00 pm70 °FSunny.10 mph50%29.92 "Hg10 mi
4:00 pm72 °FSunny.13 mph47%29.92 "Hg10 mi
3:00 pm70 °FSunny.13 mph50%29.92 "Hg10 mi
2:00 pm70 °FSunny.13 mph53%29.95 "Hg10 mi
1:00 pm75 °FMild.7 mph41%29.98 "HgN/A
12:00 pm70 °FSunny.2 mph50%30.01 "Hg10 mi
11:00 am63 °FSunny.2 mph68%30.04 "Hg10 mi
10:00 am55 °FCool.5 mph88%30.07 "HgN/A
9:00 am52 °FFog.5 mph100%30.07 "Hg1 mi
8:00 am52 °FFog.5 mph100%30.07 "Hg0 mi
7:00 am52 °FFog.6 mph94%30.04 "Hg0 mi
6:00 am50 °FFog.8 mph100%30.04 "Hg1 mi
Weather by CustomWeather, © 2019

See weather overview